Weather in Krichev

Belarus     53˚41′44″N   31˚42′24″E
temp.,
°C
wind,
m/s
gust,
m/s
humid.,
%
clouds,
%
prec.,
mm/h
press.,
hPa
HPBL,
m
3 december, thu
thu300:00−4˚sse588599 0.1 1030682
03:00−3˚sse4783100 0.1 1030620
06:00−3˚sse478699 0.1 1029599
09:00−4˚sse4788100 0.1 1029510
12:00−3˚sse5682100 0.0 1029522
15:00−2˚sse5782100 0.1 1028564
18:00−2˚sse4786100 0.1 1028548
21:00−2˚sse5887100 0.1 1027655
4 december, fri
fri400:00−2˚se5889100 0.0 1027381
03:00−1˚se6990100 0.1 1027421
06:00−1˚se61091100 0.2 1026433
09:00−1˚se61292100 0.2 1027433
12:00se71190100 0.1 1026453
15:00+1˚se61289100 0.1 1026478
18:00+1˚se71392100 0.0 1026532
21:00+1˚se71390100 0.0 1027615
5 december, sat
sat500:00+1˚sse71291100 0.0 1028595
03:00+1˚sse71291100 0.0 1028569
06:00sse71291100 0.0 1028611
09:00+1˚se71289100 0.0 1030496
12:00+1˚sse61285100 0.0 1030573
15:00+1˚se7118497 0.0 1031698
18:00se5129184 0.0 1031477
21:00se7128687 0.0 1032610
6 december, sun
sun600:00−2˚se6118459 0.0 1033448
03:00−3˚se6117430 0.0 1034403
06:00−3˚se611630 0.0 1034394
09:00−3˚se612570 0.0 1035377
12:00−2˚se611490 0.0 1036412
15:00−1˚se611480 0.0 1035444
18:00−3˚se612610 0.0 1036376
21:00−4˚se612610 0.0 1036376
7 december, mon
mon700:00−5˚se612580 0.0 1036394
03:00−5˚se612570 0.0 1037397
06:00−6˚se613590 0.0 1036387
09:00−6˚se613700 0.0 1035379
12:00−4˚se711650 0.0 1035434
15:00−3˚se712620 0.0 1034485
18:00−4˚se6147038 0.0 1034473
21:00−4˚se6146756 0.0 1034482